Overview Statistics Trail Chart Weather Telemetry Raw packets
 

This is the latest recevied weather packets stored in our database for station/object N1TKS. If no packets are shown the sender has not sent any weather packets the latest 10 day(s).

<< 1 2 3 4 5 >>
Time Temp. Humidity Pressure Rain* Wind** Luminosity Snow
1788615137 23.89° C 69% 1010.7 hPa 0 mm - - -
1788614839 23.89° C 69% 1010.7 hPa 0 mm - - -
1788614539 23.89° C 69% 1010.7 hPa 0 mm - - -
1788614238 23.33° C 71% 1010.8 hPa 0 mm - - -
1788613637 22.78° C 72% 1010.9 hPa 0 mm - - -
1788613545 21.67° C 76% 1011.1 hPa 0 mm - - -
1788613036 22.78° C 72% 1011 hPa 0 mm - - -
1788612439 22.22° C 74% 1010.9 hPa 0 mm - - -
1788612136 21.67° C 75% 1010.9 hPa 0 mm - - -
1788611837 21.67° C 76% 1011.1 hPa 0 mm - - -
1788611624 20° C 80% 1011.1 hPa 0 mm - - -
1788611537 21.11° C 76% 1011.1 hPa 0 mm - - -
1788611242 21.11° C 77% 1011.1 hPa 0 mm - - -
1788610936 21.11° C 77% 1011.1 hPa 0 mm - - -
1788610640 20.56° C 78% 1011.1 hPa 0 mm - - -
1788609736 20° C 80% 1011.1 hPa 0 mm - - -
1788609708 18.89° C 83% 1010.8 hPa 0 mm - - -
1788609439 20° C 81% 1011 hPa 0 mm - - -
1788608836 19.44° C 82% 1011 hPa 0 mm - - -
1788608537 18.89° C 83% 1010.8 hPa 0 mm - - -
1788608237 18.89° C 83% 1010.8 hPa 0 mm - - -
1788607937 18.89° C 84% 1010.7 hPa 0 mm - - -
1788607660 18.89° C 84% 1010.7 hPa 0 mm - - -
1788607335 18.89° C 84% 1010.7 hPa 0 mm - - -
1788607037 18.33° C 84% 1010.6 hPa 0 mm - - -

* Rain latest hour (hover to see other rain measurements)
** Current wind speed in m/s (hover to see current wind gust speed)